DW5310 Weather Reports


time (UTC)temp
F
wind
direction
speed
knots
gust
knots
rain 1hr
in
rain 24hr
in
rain mn
in
humidity
%
barometer
mb
20260507101507 52 63 0.0 2.6 0.00 0.00 0.00 80 1019.5
20260507101005 52 305 0.0 2.6 0.00 0.00 0.00 80 1019.5
20260507100005 52 304 0.0 0.0 0.00 0.00 0.00 80 1019.5
20260507095505 52 50 0.0 0.0 0.00 0.00 0.00 80 1019.5
20260507095005 52 35 0.0 0.0 0.00 0.00 0.00 80 1019.5
20260507094505 52 98 0.0 0.0 0.00 0.00 0.00 80 1019.5
20260507094005 52 82 0.0 0.0 0.00 0.00 0.00 81 1019.5
20260507093005 52 148 0.0 0.0 0.00 0.00 0.00 81 1019.5
20260507092505 52 35 0.0 0.0 0.00 0.00 0.00 81 1019.5
20260507092005 52 47 0.0 0.0 0.00 0.00 0.00 81 1019.5
20260507091506 52 111 0.0 0.0 0.00 0.00 0.00 81 1019.5
20260507091005 52 215 0.0 0.0 0.00 0.00 0.00 81 1019.5
20260507090006 52 215 0.0 0.0 0.00 0.00 0.00 81 1020.5
20260507085505 53 282 0.0 0.0 0.00 0.00 0.00 81 1020.5
20260507085006 53 282 0.0 0.0 0.00 0.00 0.00 81 1020.5
20260507084006 53 270 0.0 0.0 0.00 0.00 0.00 81 1019.5
20260507083506 53 87 0.0 0.0 0.00 0.00 0.00 81 1019.5
20260507083005 53 35 0.0 0.0 0.00 0.00 0.00 81 1020.5
20260507082506 53 123 0.0 0.0 0.00 0.00 0.00 82 1020.5
20260507082005 53 192 0.0 0.0 0.00 0.00 0.00 82 1020.5
20260507081505 53 84 0.0 0.0 0.00 0.00 0.00 82 1020.5
20260507081005 53 204 0.0 0.0 0.00 0.00 0.00 82 1020.5
20260507080505 53 61 0.0 0.0 0.00 0.00 0.00 82 1020.5
20260507080005 53 148 0.0 0.0 0.00 0.00 0.00 81 1019.5
20260507075505 53 136 0.0 0.0 0.00 0.00 0.00 81 1019.5
20260507075005 53 116 0.0 0.0 0.00 0.00 0.00 82 1019.5
20260507074505 53 69 0.0 0.0 0.00 0.00 0.00 81 1020.5
20260507074005 53 58 0.0 0.0 0.00 0.00 0.00 81 1020.5
20260507073505 53 101 0.0 0.0 0.00 0.00 0.00 81 1020.5
20260507073006 53 134 0.0 0.0 0.00 0.00 0.00 81 1019.5
20260507072505 53 89 0.0 0.0 0.00 0.00 0.00 81 1019.5
20260507072006 53 230 0.0 0.0 0.00 0.00 0.00 81 1019.5
20260507071505 53 177 0.0 0.0 0.00 0.00 0.00 81 1019.5
20260507071005 53 35 0.0 0.0 0.00 0.00 0.00 81 1019.5
20260507070505 53 125 0.0 0.0 0.00 0.00 0.00 81 1019.5
20260507070010 53 145 0.0 0.0 0.00 0.00 0.00 81 1020.5
20260507065506 53 73 0.0 0.0 0.00 0.00 0.00 80 1020.5
20260507065006 53 191 0.0 0.0 0.00 0.00 0.00 80 1020.5
20260507064505 53 70 0.0 0.0 0.00 0.00 0.00 80 1019.5
20260507064005 53 109 0.0 0.0 0.00 0.00 0.00 80 1019.5
20260507063505 53 72 0.0 0.0 0.00 0.00 0.00 80 1019.5
20260507061505 53 138 0.0 4.3 0.00 0.00 0.00 80 1020.5
20260507061005 53 53 0.0 0.0 0.00 0.00 0.00 80 1020.5
20260507060505 53 305 0.0 0.0 0.00 0.00 0.00 80 1020.5
20260507060004 54 109 0.0 4.3 0.00 0.00 0.00 79 1020.5
20260507055005 54 52 0.9 4.3 0.00 0.00 0.00 79 1020.5
20260507054505 54 70 0.0 5.2 0.00 0.00 0.00 79 1020.5
20260507054005 54 333 0.9 5.2 0.00 0.00 0.00 79 1020.5
20260507053506 54 148 0.0 0.0 0.00 0.00 0.00 78 1020.5
20260507052505 54 267 0.0 4.3 0.00 0.00 0.00 78 1019.5
20260507052005 54 115 0.0 0.0 0.00 0.00 0.00 78 1019.5
20260507051505 55 76 0.0 1.7 0.00 0.00 0.00 78 1020.5
20260507051005 55 112 0.0 1.7 0.00 0.00 0.00 78 1020.5
20260507050505 55 114 0.0 0.0 0.00 0.00 0.00 78 1020.5
20260507050005 55 145 0.0 0.0 0.00 0.00 0.00 78 1020.5
20260507045505 55 111 0.0 4.3 0.00 0.00 0.00 77 1020.5
20260507045004 55 305 0.0 4.3 0.00 0.00 0.00 77 1020.5
20260507044505 55 116 0.9 4.3 0.00 0.00 0.00 77 1020.5
20260507044005 55 25 0.0 4.3 0.00 0.00 0.00 77 1020.5
20260507043505 56 72 0.0 7.8 0.00 0.00 0.00 76 1020.5
20260507042505 56 131 0.0 5.2 0.00 0.00 0.00 77 1019.5
20260507042005 56 78 0.0 5.2 0.00 0.00 0.00 77 1019.5
20260507041005 56 48 0.0 4.3 0.00 0.00 0.00 77 1019.5
20260507040504 57 103 0.0 4.3 0.00 0.00 0.00 77 1019.5
20260507035505 57 103 0.0 4.3 0.00 0.00 0.00 77 1018.5
20260507035005 57 69 0.0 0.0 0.00 0.00 0.00 77 1018.5
20260507034505 57 74 0.0 4.3 0.00 0.00 0.00 77 1018.5
20260507034006 57 92 0.0 4.3 0.00 0.00 0.00 76 1018.5
20260507033505 57 64 0.0 1.7 0.00 0.00 0.00 76 1018.5
20260507033005 57 305 0.0 1.7 0.00 0.00 0.00 76 1018.5
20260507032505 57 75 0.0 0.0 0.00 0.00 0.00 76 1018.5
20260507032004 57 43 0.0 0.0 0.00 0.00 0.00 76 1018.5
20260507031005 58 49 0.0 0.0 0.00 0.00 0.00 75 1018.5
20260507030505 58 54 0.0 0.0 0.00 0.00 0.00 75 1018.5
20260507030004 58 8 0.0 0.0 0.00 0.00 0.00 75 1018.5
20260507025004 59 58 0.0 0.0 0.00 0.00 0.00 74 1018.5
20260507024005 59 1 0.0 0.0 0.00 0.00 0.00 73 1018.5
20260507023505 60 98 0.0 6.1 0.00 0.00 0.00 73 1018.5
20260507023004 60 43 0.0 6.1 0.00 0.00 0.00 73 1018.5
20260507022504 60 35 0.0 0.0 0.00 0.00 0.00 73 1018.5
20260507021505 61 65 0.0 5.2 0.00 0.00 0.00 73 1017.5
20260507020505 61 82 0.0 5.2 0.00 0.00 0.00 72 1017.5
20260507015504 62 81 0.0 2.6 0.00 0.00 0.00 72 1018.5
20260507015004 62 343 0.0 4.3 0.00 0.00 0.00 72 1018.5
20260507014505 62 81 0.9 4.3 0.00 0.00 0.00 72 1017.5
20260507014004 63 44 0.0 1.7 0.00 0.00 0.00 71 1017.5
20260507013504 63 53 0.0 4.3 0.00 0.00 0.00 71 1017.5
20260507013004 63 305 0.9 4.3 0.00 0.00 0.00 72 1018.5
20260507012504 64 39 0.0 0.0 0.00 0.00 0.00 72 1018.5
20260507012004 64 305 0.0 0.0 0.00 0.00 0.00 71 1018.5
20260507011504 64 0 0.0 0.0 0.00 0.00 0.00 72 1018.5
20260507010504 65 344 0.0 0.0 0.00 0.00 0.00 71 1018.5
20260507010004 65 305 0.0 0.0 0.00 0.00 0.00 71 1018.5
20260507005504 65 318 0.0 0.0 0.00 0.00 0.00 71 1018.5
20260507005004 65 305 0.0 0.0 0.00 0.00 0.00 72 1018.5
20260507004505 66 24 0.0 0.0 0.00 0.00 0.00 71 1018.5
20260507004004 66 263 0.0 2.6 0.00 0.00 0.00 71 1018.5
20260507003504 66 38 0.0 2.6 0.00 0.00 0.00 71 1018.5
20260507003004 65 80 0.0 5.2 0.00 0.00 0.00 71 1018.5
20260507002506 65 35 0.0 5.2 0.00 0.00 0.00 71 1018.5
20260507002006 65 79 0.0 0.0 0.00 0.00 0.00 71 1018.5
20260507001504 65 76 0.0 0.0 0.00 0.00 0.00 71 1018.5
20260507001005 65 334 0.0 0.0 0.00 0.00 0.00 71 1018.5
20260507000505 65 58 0.0 0.0 0.00 0.00 0.00 70 1018.5
20260506235504 66 306 0.0 0.0 0.00 0.00 0.00 71 1018.5
20260506235004 66 35 0.0 0.0 0.00 0.00 0.00 71 1018.5
20260506234005 66 35 0.0 0.0 0.00 0.00 0.00 70 1019.5
20260506233505 66 97 0.0 0.0 0.00 0.00 0.00 70 1019.5
20260506232504 66 282 0.0 0.0 0.00 0.00 0.00 69 1018.5
20260506232004 66 238 0.0 0.0 0.00 0.00 0.00 71 1018.5
20260506231004 66 125 0.0 0.0 0.00 0.00 0.00 71 1018.5
20260506230503 66 118 0.0 0.0 0.00 0.00 0.00 72 1018.5
20260506230004 65 211 0.0 0.0 0.00 0.00 0.00 72 1018.5
20260506225504 64 117 0.0 0.0 0.00 0.00 0.00 72 1018.5
20260506224504 64 181 0.0 1.7 0.00 0.00 0.00 72 1018.5
20260506223504 64 282 0.0 0.0 0.00 0.00 0.00 74 1018.5
20260506223004 64 243 0.0 0.0 0.00 0.00 0.00 74 1018.5
20260506222504 64 305 0.0 0.0 0.00 0.00 0.00 75 1018.5
20260506221504 64 35 0.0 0.0 0.00 0.00 0.00 75 1018.5
20260506220504 64 35 0.0 0.0 0.00 0.00 0.00 75 1018.5
20260506220004 64 62 0.0 0.0 0.00 0.00 0.00 75 1018.5
20260506215504 64 91 0.0 0.0 0.00 0.00 0.00 75 1018.5
20260506215004 64 257 0.0 0.0 0.00 0.00 0.00 77 1018.5
20260506214504 64 133 0.0 4.3 0.00 0.00 0.00 77 1018.5
20260506214004 64 219 0.0 4.3 0.00 0.00 0.00 77 1018.5
20260506213504 63 305 0.0 0.0 0.00 0.00 0.00 77 1018.5
20260506213004 64 7 0.0 0.0 0.00 0.00 0.00 77 1018.5
20260506212504 64 198 0.0 0.0 0.00 0.00 0.00 78 1018.5
20260506211504 63 129 0.9 4.3 0.00 0.00 0.00 77 1018.5
20260506211004 63 135 0.0 1.7 0.00 0.00 0.00 78 1018.5
20260506210004 62 80 0.0 0.0 0.00 0.00 0.00 79 1018.5
20260506205004 62 293 0.0 5.2 0.00 0.00 0.00 79 1018.5
20260506204003 62 184 0.0 1.7 0.00 0.00 0.00 80 1018.5
20260506203504 61 282 0.0 0.0 0.00 0.00 0.00 80 1018.5
20260506203003 61 170 0.0 0.0 0.00 0.00 0.00 80 1018.5
20260506202504 61 58 0.0 0.0 0.00 0.00 0.00 81 1018.5
20260506202004 61 144 0.0 0.0 0.00 0.00 0.00 81 1018.5
20260506201505 61 260 0.0 0.0 0.00 0.00 0.00 81 1019.5
20260506200005 60 215 0.0 0.0 0.00 0.00 0.00 81 1019.5
20260506194504 61 140 0.0 4.3 0.00 0.00 0.00 82 1019.5
20260506194004 61 128 0.0 0.0 0.00 0.00 0.00 82 1019.5
20260506193504 61 143 0.0 0.0 0.00 0.00 0.00 82 1019.5
20260506193007 61 219 0.0 0.0 0.00 0.00 0.00 82 1018.5
20260506192506 61 256 0.0 6.1 0.00 0.00 0.00 82 1018.5
20260506192007 61 212 0.0 6.1 0.00 0.00 0.00 82 1018.5
20260506191507 61 171 1.7 5.2 0.00 0.00 0.00 83 1018.5
20260506191006 60 151 0.0 0.0 0.00 0.00 0.00 83 1018.5
20260506190507 60 244 0.0 0.0 0.00 0.00 0.00 84 1018.5
20260506190007 59 218 0.0 0.0 0.00 0.00 0.00 84 1019.5
20260506185507 60 115 0.0 0.0 0.00 0.00 0.00 84 1019.5
20260506185006 60 192 0.0 0.0 0.00 0.00 0.00 86 1019.5
20260506183507 58 196 0.0 2.6 0.00 0.00 0.00 86 1018.5
20260506182506 58 139 0.0 0.0 0.00 0.00 0.00 87 1019.5
20260506182007 58 282 0.0 0.0 0.00 0.00 0.00 87 1019.5
20260506181507 58 282 0.0 0.0 0.00 0.00 0.00 87 1019.5
20260506181007 58 282 0.0 0.0 0.00 0.00 0.00 87 1019.5
20260506180506 57 258 0.0 0.0 0.00 0.00 0.00 87 1019.5
20260506180006 57 260 0.0 0.0 0.00 0.00 0.00 87 1018.5
20260506175506 57 260 0.0 0.0 0.00 0.00 0.00 87 1018.5
20260506175007 57 260 0.0 0.0 0.00 0.00 0.00 86 1018.5
20260506174506 57 266 0.0 0.0 0.00 0.00 0.00 87 1018.5
20260506174007 57 110 0.0 0.0 0.00 0.00 0.00 87 1018.5
20260506173507 57 134 0.0 0.0 0.00 0.00 0.00 87 1018.5
20260506172506 57 148 0.0 0.0 0.00 0.00 0.00 87 1018.5
20260506172007 57 148 0.0 0.0 0.00 0.00 0.00 87 1018.5
20260506171006 56 58 0.0 0.0 0.00 0.00 0.00 87 1018.5
20260506170506 57 256 0.0 0.0 0.00 0.00 0.00 87 1018.5
20260506170006 57 51 0.0 0.0 0.00 0.00 0.00 87 1018.5
20260506165506 57 35 0.0 0.0 0.00 0.00 0.00 87 1018.5
20260506164507 57 125 0.0 0.0 0.00 0.00 0.00 87 1018.5
20260506164006 57 192 0.0 0.0 0.00 0.00 0.00 87 1018.5
20260506163506 57 192 0.0 0.0 0.00 0.00 0.00 88 1018.5
20260506163006 56 205 0.0 0.0 0.00 0.00 0.00 88 1018.5
20260506162506 56 125 0.0 0.0 0.00 0.00 0.00 88 1018.5
20260506162006 56 148 0.0 0.0 0.00 0.00 0.00 88 1018.5
20260506161006 56 305 0.0 0.0 0.00 0.00 0.00 88 1018.5
20260506160506 56 305 0.0 0.0 0.00 0.00 0.00 88 1018.5
20260506160006 56 56 0.0 0.0 0.00 0.00 0.00 88 1018.5
20260506155506 56 50 0.0 2.6 0.00 0.00 0.00 89 1018.5
20260506155006 55 85 0.0 2.6 0.00 0.00 0.00 89 1018.5
20260506154506 55 125 0.0 0.0 0.00 0.00 0.00 89 1018.5
20260506154005 55 138 0.0 0.0 0.00 0.00 0.00 89 1018.5
20260506153506 55 35 0.0 0.0 0.00 0.00 0.00 89 1018.5
20260506153007 55 89 0.0 0.0 0.00 0.00 0.00 89 1018.5
20260506152506 55 64 0.0 0.0 0.00 0.00 0.00 89 1018.5
20260506152006 55 125 0.0 0.0 0.00 0.00 0.00 89 1018.5
20260506151506 55 35 0.0 0.0 0.00 0.00 0.00 89 1018.5
20260506151006 55 35 0.0 0.0 0.00 0.00 0.00 88 1018.5
20260506150506 55 35 0.0 0.0 0.00 0.00 0.00 89 1018.5
20260506145509 55 287 0.0 0.0 0.00 0.00 0.00 89 1018.5
20260506145007 55 305 0.0 0.0 0.00 0.00 0.00 89 1018.5
20260506144506 55 305 0.0 0.0 0.00 0.00 0.00 89 1018.5
20260506144005 55 305 0.0 0.0 0.00 0.00 0.00 89 1018.5
20260506143506 55 305 0.0 0.0 0.00 0.00 0.00 89 1018.5
20260506143006 55 35 0.0 0.0 0.00 0.00 0.00 89 1018.5
20260506142506 55 35 0.0 0.0 0.00 0.00 0.00 89 1018.5
20260506142006 55 58 0.0 0.0 0.00 0.00 0.00 89 1018.5
20260506141506 55 58 0.0 0.0 0.00 0.00 0.00 89 1018.5
20260506141006 55 58 0.0 0.0 0.00 0.00 0.00 89 1018.5
20260506140006 55 58 0.0 0.0 0.00 0.00 0.00 89 1018.5
20260506135506 55 96 0.0 0.0 0.00 0.00 0.00 89 1018.5
20260506135007 55 80 0.0 0.0 0.00 0.00 0.00 89 1018.5
20260506134506 55 80 0.0 0.0 0.00 0.00 0.00 89 1018.5
20260506133505 55 80 0.0 0.0 0.00 0.00 0.00 89 1018.5
20260506132506 55 148 0.0 0.0 0.00 0.00 0.00 89 1017.5
20260506132005 55 148 0.0 0.0 0.00 0.00 0.00 89 1017.5
20260506131506 54 148 0.0 0.0 0.00 0.00 0.00 89 1017.5
20260506131007 54 80 0.0 0.0 0.00 0.00 0.00 88 1017.5
20260506130506 54 80 0.0 0.0 0.00 0.00 0.00 88 1017.5
20260506125506 54 102 0.0 0.0 0.00 0.00 0.00 88 1017.5
20260506125006 54 102 0.0 0.0 0.00 0.00 0.00 88 1017.5
20260506123005 55 141 0.0 0.0 0.00 0.00 0.00 88 1017.5
20260506122506 55 98 0.0 0.0 0.00 0.00 0.00 88 1017.5
20260506121506 55 80 0.0 0.0 0.00 0.00 0.00 87 1017.5
20260506121006 55 58 0.0 0.0 0.00 0.00 0.00 87 1017.5
20260506120506 55 102 0.0 0.0 0.00 0.00 0.00 87 1017.5
20260506115506 55 48 0.0 0.0 0.00 0.00 0.00 87 1017.5
20260506115005 55 35 0.0 0.0 0.00 0.00 0.00 87 1017.5
20260506114506 55 102 0.0 0.0 0.00 0.00 0.00 87 1017.5
20260506114005 55 125 0.0 0.0 0.00 0.00 0.00 87 1017.5
20260506113006 55 92 0.0 0.0 0.00 0.00 0.00 87 1017.5
20260506112505 55 47 0.0 0.0 0.00 0.00 0.00 87 1017.5
20260506112006 55 74 0.0 0.0 0.00 0.00 0.00 87 1017.5
20260506111506 55 305 0.0 0.0 0.00 0.00 0.00 87 1016.5
20260506111006 55 133 0.0 0.0 0.00 0.00 0.00 86 1016.5
20260506110506 55 80 0.0 0.0 0.00 0.00 0.00 86 1016.5
20260506110005 55 58 0.0 0.0 0.00 0.00 0.00 86 1016.5
20260506105006 56 80 0.0 0.0 0.00 0.00 0.00 87 1016.5
20260506104505 56 170 0.0 0.0 0.00 0.00 0.00 86 1016.5
20260506104006 56 170 0.0 0.0 0.00 0.00 0.00 87 1016.5
20260506103505 56 163 0.0 0.0 0.00 0.00 0.00 87 1016.5
20260506103005 56 125 0.0 0.0 0.00 0.00 0.00 87 1016.5
20260506102005 56 125 0.0 0.0 0.00 0.00 0.00 87 1016.5